STARLINK-32204

Last updated on Fri Sep 20 2024 00:02:03 GMT+0000 (Coordinated Universal Time)

1 60584U 24150B 24263.58334491 .00020377 00000+0 51846-3 0 9994 2 60584 53.1576 279.4643 0001267 70.6516 122.6875 15.39595378 6011
UTC large
Height (km)
Speed (km/s)
/
Latitude / Longitude
Inclination (degrees)
Orbital Period (minutes)
Azimuth
Elevation
Range (km)
Doppler Factor

Next 0 passes for location: London (51.5072 / 0.1276)

Sorry there are no passes over London.